Weather History for RJCK - July, 2013

Change the Weather History Date:

Tuesday, July 2, 2013

  Actual Average Record
Temperature  
Mean Temperature 60 °F -  
Max Temperature 62 °F 65 °F 73 °F (2015)
Min Temperature 59 °F 55 °F 48 °F (2003)
Degree Days  
Heating Degree Days 4    
Growing Degree Days 10 (Base 50)    
Moisture  
Dew Point 58 °F    
Average Humidity 93    
Maximum Humidity 100    
Minimum Humidity 82    
Precipitation  
Precipitation 0.00 in - - ()
Sea Level Pressure  
Sea Level Pressure 29.97 in    
Wind  
Wind Speed 5 mph ()    
Max Wind Speed 12 mph    
Max Gust Speed -    
Visibility 2.3 miles    
Events Fog    
Averages and records for this station are not official NWS values.
T = Trace of Precipitation, MM = Missing Value Source: Averaged Metar Reports

Daily Weather History Graph

Daily Weather History Graph

Search for Another Location

Airport or City:

Trip Planner

Search our weather history database for the weather conditions in past years. The results will help you decide how hot, cold, wet, or windy it might be!

Date:

Astronomy

Jul. 02, 2013 Rise Set
Actual Time 3:48 AM JST 7:06 PM JST
Civil Twilight 3:12 AM JST 7:41 PM JST
Nautical Twilight 2:27 AM JST 8:26 PM JST
Astronomical Twilight 1:31 AM JST 9:22 PM JST
Moon No Moon Rise 1:37 PM JST (7/2)
Length of Visible Light 16h 28m
Length of Day
15h 18m
Waning Crescent, 31% of the Moon is Illuminated
Jul 2
Waning Crescent
Jul 8
New
Jul 16
First Quarter
Jul 23
Full
Jul 30
Last Quarter

Hourly Weather History & Observations

Time (JST) Temp. Dew Point Humidity Pressure Visibility Wind Dir Wind Speed Gust Speed Precip Events Conditions
7:00 AM 59.0 °F 59.0 °F 100% 29.98 in 0.1 mi Variable 2.3 mph - N/A Fog Fog
8:00 AM 59.0 °F 57.2 °F 94% 29.98 in 0.2 mi ENE 3.5 mph - N/A Fog Fog
8:01 AM 59.0 °F 57.2 °F 94% 29.98 in 0.2 mi ENE 3.5 mph - N/A Fog Fog
8:05 AM 59.0 °F 57.2 °F 94% 29.98 in 0.2 mi East 3.5 mph - N/A Fog Fog
8:18 AM 59.0 °F 57.2 °F 94% 29.98 in 0.2 mi Variable 2.3 mph - N/A Fog Fog
8:20 AM 59.0 °F 57.2 °F 94% 29.98 in 0.2 mi Variable 2.3 mph - N/A Fog Fog
8:26 AM 59.0 °F 59.0 °F 100% 29.98 in 0.2 mi Variable 2.3 mph - N/A Fog Fog
8:32 AM 59.0 °F 59.0 °F 100% 29.98 in 0.2 mi Variable 2.3 mph - N/A Fog Fog
8:40 AM 59.0 °F 59.0 °F 100% 29.98 in 0.6 mi Variable 2.3 mph - N/A Fog Fog
8:42 AM 59.0 °F 59.0 °F 100% 29.98 in 0.6 mi Variable 2.3 mph - N/A Fog Fog
8:47 AM 59.0 °F 59.0 °F 100% 29.98 in 0.9 mi East 3.5 mph - N/A Fog Patches of Fog
8:49 AM 59.0 °F 59.0 °F 100% 29.98 in 0.9 mi East 3.5 mph - N/A Fog Patches of Fog
9:00 AM 59.0 °F 59.0 °F 100% 29.98 in 1.2 mi ENE 4.6 mph - N/A Fog Patches of Fog
9:24 AM 59.0 °F 59.0 °F 100% 29.98 in 0.9 mi East 3.5 mph - N/A   Mostly Cloudy
9:28 AM 59.0 °F 59.0 °F 100% 29.98 in 0.7 mi Variable 2.3 mph - N/A   Mostly Cloudy
10:00 AM 60.8 °F 59.0 °F 94% 29.98 in 0.6 mi Variable 2.3 mph - N/A Fog Fog
10:13 AM 60.8 °F 59.0 °F 94% 29.98 in 0.9 mi NE 3.5 mph - N/A Fog Patches of Fog
10:28 AM 60.8 °F 59.0 °F 94% 29.98 in 1.0 mi ENE 4.6 mph - N/A Fog Patches of Fog
10:35 AM 60.8 °F 59.0 °F 94% 29.98 in 1.5 mi ENE 3.5 mph - N/A   Mostly Cloudy
10:43 AM 60.8 °F 59.0 °F 94% 29.98 in - East 4.6 mph - N/A   Mostly Cloudy
11:00 AM 60.8 °F 59.0 °F 94% 29.98 in 2.2 mi ENE 4.6 mph - N/A   Mostly Cloudy
11:34 AM 62.6 °F 59.0 °F 88% 29.98 in 2.5 mi East 3.5 mph - N/A   Mostly Cloudy
12:00 PM 62.6 °F 57.2 °F 82% 29.95 in 3.1 mi South 9.2 mph - N/A   Mostly Cloudy
12:15 PM 60.8 °F 59.0 °F 94% 29.95 in - South 11.5 mph - N/A Fog Fog
12:18 PM 60.8 °F 57.2 °F 88% 29.95 in - South 11.5 mph - N/A Fog Patches of Fog
12:23 PM 60.8 °F 59.0 °F 94% 29.98 in 1.4 mi South 11.5 mph - N/A Fog Patches of Fog
12:33 PM 60.8 °F 57.2 °F 88% 29.98 in - South 10.4 mph - N/A Fog Fog
1:00 PM 60.8 °F 57.2 °F 88% 29.98 in 2.5 mi SSW 10.4 mph - N/A Fog Fog
2:00 PM 62.6 °F 59.0 °F 88% 29.98 in 4.3 mi SSW 11.5 mph - N/A Fog Fog
2:12 PM 62.6 °F 57.2 °F 82% 29.95 in 3.7 mi SSW 11.5 mph - N/A Fog Fog
2:21 PM 62.6 °F 59.0 °F 88% 29.95 in - South 10.4 mph - N/A   Mostly Cloudy
2:33 PM 60.8 °F 59.0 °F 94% 29.95 in - South 9.2 mph - N/A   Mostly Cloudy
2:40 PM 60.8 °F 59.0 °F 94% 29.95 in 1.4 mi South 8.1 mph - N/A Fog Patches of Fog
3:00 PM 62.6 °F 59.0 °F 88% 29.95 in 1.9 mi SSW 9.2 mph - N/A Fog Patches of Fog
3:30 PM 60.8 °F 59.0 °F 94% 29.95 in 1.4 mi South 9.2 mph - N/A Fog Patches of Fog
3:42 PM 60.8 °F 57.2 °F 88% 29.95 in 0.9 mi South 9.2 mph - N/A Fog Patches of Fog
4:00 PM 60.8 °F 59.0 °F 94% 29.95 in 0.9 mi South 6.9 mph - N/A Fog Patches of Fog
4:06 PM 60.8 °F 59.0 °F 94% 29.95 in 1.0 mi South 6.9 mph - N/A Fog Patches of Fog
4:13 PM 60.8 °F 59.0 °F 94% 29.95 in 1.5 mi SSW 6.9 mph - N/A Fog Patches of Fog
4:20 PM 60.8 °F 59.0 °F 94% 29.95 in - South 8.1 mph - N/A Fog Fog
4:27 PM 60.8 °F 59.0 °F 94% 29.95 in 3.1 mi SSW 8.1 mph - N/A Fog Fog
4:40 PM 60.8 °F 59.0 °F 94% 29.95 in 5.0 mi South 6.9 mph - N/A   Mostly Cloudy
5:00 PM 62.6 °F 57.2 °F 82% 29.95 in 6.2 mi South 6.9 mph - N/A   Mostly Cloudy
5:21 PM 62.6 °F 59.0 °F 88% 29.98 in 6.2 mi South 5.8 mph - N/A   Mostly Cloudy
6:00 PM 60.8 °F 57.2 °F 88% 29.98 in 6.2 mi South 6.9 mph - N/A   Mostly Cloudy
6:44 PM 60.8 °F 57.2 °F 88% 29.98 in 6.2 mi South 5.8 mph - N/A   Mostly Cloudy
7:00 PM 60.8 °F 57.2 °F 88% 29.98 in 6.2 mi South 5.8 mph - N/A   Mostly Cloudy
7:36 PM 60.8 °F 57.2 °F 88% 29.98 in 6.2 mi South 6.9 mph - N/A   Mostly Cloudy
8:00 PM 60.8 °F 57.2 °F 88% 29.98 in 6.2 mi South 6.9 mph - N/A   Mostly Cloudy
8:11 PM 60.8 °F 57.2 °F 88% 29.98 in 6.2 mi South 6.9 mph - N/A   Mostly Cloudy
8:22 PM 60.8 °F 57.2 °F 88% 30.01 in 3.7 mi SSW 6.9 mph - N/A   Mostly Cloudy